Theta_e
327 328 330 334 334 335 334 332 331 329 326 323 319 316 312 312 313 317 322 326 328 327 327 327 326 326 326 326 326 325 324 321 322 324 324 323 323 323 322 322 322 322 323 323 323 323 324 324 325 325 324 325
325 328 331 334 334 334 334 333 331 330 328 325 322 320 317 314 311 310 314 319 322 323 324 326 326 326 326 325 325 324 324 321 320 322 323 322 322 322 322 321 321 320 319 319 320 320 321 321 322 322 321 321
323 328 331 332 334 334 334 334 332 331 330 327 324 322 321 319 316 312 309 310 311 313 317 321 323 325 325 325 324 323 323 321 319 320 320 319 321 322 321 320 320 319 319 319 320 320 321 320 320 321 321 321
324 326 331 331 332 334 334 334 332 331 331 328 325 323 323 322 320 316 311 307 305 306 309 313 317 321 323 323 323 322 321 321 320 318 317 318 320 321 320 320 320 321 321 321 321 321 321 321 321 322 322 322
330 325 331 332 331 334 334 334 333 331 331 329 326 324 323 323 322 319 314 309 304 303 304 307 310 315 320 322 322 320 319 322 320 316 316 318 319 320 320 321 321 322 322 322 322 322 322 321 322 322 322 322
335 329 331 333 332 333 333 333 333 332 332 330 328 326 324 323 322 320 316 311 307 304 303 304 305 310 317 320 318 317 318 321 320 317 316 317 319 320 320 321 321 321 321 322 321 322 322 322 323 323 322 322
338 334 333 334 333 333 333 334 333 332 332 331 329 327 325 323 322 320 318 313 309 308 305 303 303 305 311 313 314 316 318 319 319 317 316 316 317 319 320 320 321 321 321 321 322 321 322 322 323 323 322 322
339 337 336 336 334 333 333 334 333 333 332 331 330 328 326 324 322 321 319 315 311 310 309 305 302 302 304 307 310 314 315 316 318 317 315 315 315 317 319 320 320 320 320 321 322 321 322 322 322 322 321 321
339 338 337 337 336 334 333 334 333 333 332 332 330 328 327 326 325 323 320 317 313 312 312 308 303 301 302 303 306 308 309 313 316 316 314 314 314 314 317 319 319 320 320 320 321 321 321 322 322 322 322 322
339 339 339 338 337 336 334 333 333 333 332 332 331 328 327 327 327 325 322 319 316 313 312 310 304 301 301 301 302 303 304 311 315 315 313 313 314 314 315 318 319 319 319 320 320 321 321 322 322 322 322 322
339 339 339 338 338 337 336 334 333 334 333 332 331 329 328 328 328 327 324 321 319 315 312 311 307 303 302 301 301 301 303 311 315 314 312 313 313 313 314 316 318 318 319 319 319 320 321 321 321 321 321 322
340 339 339 339 338 338 337 335 334 333 333 332 331 331 330 329 328 329 327 323 320 318 314 312 310 307 304 301 301 301 302 308 312 311 311 312 312 312 313 315 316 317 318 318 318 319 320 320 320 320 321 321
340 339 339 338 338 338 338 336 335 334 333 333 332 332 332 331 329 329 328 325 322 320 316 312 311 311 308 303 301 301 302 306 309 308 309 311 311 311 312 314 315 316 317 317 317 318 319 319 319 319 320 320
340 339 339 338 337 338 338 337 336 334 334 333 333 332 332 332 330 330 329 327 324 321 318 314 312 311 311 306 302 300 302 305 306 306 308 309 310 310 312 314 314 315 315 316 317 317 318 317 317 318 318 318
339 339 339 339 338 338 338 337 336 335 334 334 334 333 333 332 331 331 330 329 326 323 319 318 316 313 310 307 304 301 302 305 305 305 307 308 309 310 311 313 314 314 315 315 316 316 317 316 316 316 316 317
339 338 338 338 338 338 337 336 337 336 335 335 335 334 334 333 332 331 330 328 327 325 321 321 321 318 313 309 305 301 302 305 306 305 307 308 309 310 312 313 313 314 314 314 314 315 316 315 315 315 315 315
338 338 338 338 338 338 337 337 337 336 336 335 335 335 334 334 333 331 330 329 327 326 324 323 323 321 318 312 308 304 303 307 309 308 308 309 309 310 312 313 312 312 313 313 313 314 315 315 315 314 314 314
336 336 337 337 336 337 337 337 337 337 336 336 335 335 335 334 333 332 331 329 327 326 325 324 323 322 320 317 313 310 307 310 312 310 310 310 310 311 312 312 311 310 311 311 312 312 313 314 314 314 313 313
335 335 335 336 335 335 336 337 337 337 337 336 335 335 335 335 334 333 331 329 328 327 326 325 324 322 321 319 316 313 311 312 313 311 311 311 312 310 310 310 309 308 309 309 310 310 311 312 313 313 313 312
334 335 335 335 334 334 334 335 336 336 337 336 336 336 336 335 335 334 332 330 329 328 327 326 324 323 322 320 317 315 312 313 314 312 312 311 312 310 308 307 306 305 306 306 307 308 309 310 311 312 312 311
333 334 334 334 333 333 333 333 334 335 336 337 336 336 336 336 335 334 333 332 330 329 328 327 325 323 322 321 319 316 314 314 314 313 313 311 310 311 308 305 304 302 303 303 304 305 306 306 307 309 309 309
332 334 334 334 333 332 332 332 332 332 333 335 336 337 336 335 335 334 334 333 332 330 329 328 327 324 322 321 320 318 315 315 314 314 314 311 308 309 309 306 304 302 300 300 300 301 302 302 301 302 302 303
332 333 332 333 332 331 331 331 331 330 330 332 335 335 335 335 334 335 334 333 333 331 330 328 327 325 322 322 321 319 316 315 314 314 313 312 308 306 307 307 305 302 299 297 296 296 297 297 296 296 296 296
332 331 331 331 331 331 330 330 330 330 328 330 334 335 334 334 334 334 334 334 333 332 331 329 328 326 323 322 322 320 318 316 315 314 313 312 309 306 304 302 302 302 299 296 294 294 294 294 293 293 293 293
331 331 330 330 330 330 329 329 330 329 329 330 334 335 335 335 334 334 334 334 334 333 332 329 328 327 325 323 322 321 320 318 317 315 314 312 309 307 303 300 300 300 298 295 293 293 293 292 292 292 292 292
330 330 330 329 329 329 328 328 329 329 330 331 333 334 335 335 334 333 333 333 333 333 333 331 329 328 327 325 324 322 320 319 317 315 314 311 308 305 303 302 300 298 297 296 293 292 292 291 291 292 292 292
328 330 329 328 328 327 327 327 328 329 330 331 331 332 333 333 333 333 332 331 331 331 332 332 331 328 328 327 325 323 319 317 316 314 312 311 309 306 303 301 299 297 298 298 294 292 294 293 291 291 291 291
327 328 328 327 327 326 326 326 327 328 329 330 330 330 330 331 331 332 332 332 332 331 331 332 332 329 328 328 326 323 320 318 316 315 312 310 310 308 303 299 297 298 299 300 297 295 295 293 293 296 293 290
327 327 327 326 326 325 325 325 325 326 327 328 328 328 328 329 329 329 329 330 330 331 331 332 332 331 329 328 327 323 321 321 318 316 315 313 311 310 307 302 298 297 298 301 302 301 298 295 297 299 294 290
326 326 326 325 324 324 324 324 324 324 325 326 326 327 327 327 327 326 326 325 326 327 328 330 331 330 330 330 327 324 322 322 320 317 316 314 312 311 311 307 301 298 298 300 302 303 304 302 304 301 292 291
325 325 324 324 324 323 323 322 323 324 324 324 325 325 325 326 325 325 323 322 324 325 326 328 329 329 330 330 328 326 323 323 321 318 316 316 316 314 312 309 304 300 299 298 299 301 303 303 306 305 297 294
Wind_Speed
15 17 15 14 13 12 11 9 9 9 9 10 12 13 13 14 14 15 16 16 15 15 15 14 14 14 13 12 13 14 14 16 17 17 20 23 23 21 20 20 20 20 21 21 20 18 18 19 20 21 22 25
16 17 15 14 13 13 12 10 9 9 9 9 10 12 12 13 13 13 14 15 15 14 15 15 15 14 14 14 14 15 15 16 17 18 22 22 21 20 20 20 20 20 20 20 20 20 20 21 22 21 21 23
17 17 15 14 14 13 13 12 10 10 9 9 10 11 11 12 12 12 12 13 13 13 14 15 16 14 14 15 14 14 15 16 16 18 22 20 19 20 20 20 20 19 19 19 19 20 21 22 23 22 22 24
17 18 16 15 14 14 14 12 11 10 10 9 9 10 11 11 11 12 12 12 12 13 14 14 15 15 15 14 14 14 15 16 15 18 20 19 19 20 21 21 19 18 18 18 18 19 20 20 21 22 22 22
18 18 17 15 15 14 14 13 12 11 10 10 9 10 10 11 11 11 11 12 12 13 13 14 14 15 15 14 14 14 15 15 15 18 19 19 20 21 21 19 18 18 18 18 18 19 19 20 21 23 22 22
18 19 19 17 16 16 15 14 13 12 12 11 10 10 10 11 11 11 11 12 12 12 12 13 14 14 14 14 14 14 15 15 15 17 17 18 21 20 19 18 18 17 17 16 16 17 19 21 22 23 23 23
20 20 20 19 19 18 17 16 15 14 14 12 12 11 11 11 11 12 11 12 12 12 12 12 12 13 13 14 14 14 15 15 16 17 16 18 20 19 18 17 17 16 16 15 15 16 19 22 23 22 22 23
21 22 22 21 21 20 19 18 17 16 15 14 13 12 12 12 12 12 12 12 12 12 12 12 12 12 13 14 15 15 16 17 18 17 16 17 18 18 17 17 17 16 15 15 16 18 20 21 21 22 22 22
23 23 24 23 23 22 21 20 19 18 17 16 15 14 13 12 12 12 12 12 12 12 12 12 12 12 13 14 14 15 17 20 19 17 17 18 18 17 16 17 17 16 16 16 16 17 19 20 21 22 22 22
24 24 25 25 25 24 24 23 22 20 20 18 17 16 15 13 12 12 12 13 13 13 13 13 13 13 13 13 13 14 18 20 19 18 19 18 17 16 16 16 17 17 17 17 16 17 18 20 21 22 21 21
24 24 25 26 26 26 26 25 24 23 22 20 19 19 17 16 15 14 14 15 15 14 14 14 14 14 14 14 13 14 17 20 20 20 19 17 16 15 14 16 17 17 17 17 17 17 18 20 21 21 21 21
24 24 25 26 26 27 27 26 26 25 24 22 22 21 20 19 19 17 15 16 16 16 16 16 16 15 15 15 15 16 18 21 21 20 18 17 16 15 14 15 16 17 17 17 17 18 20 20 21 21 21 21
24 24 25 26 27 27 28 28 27 27 25 24 24 24 22 22 22 20 18 17 17 17 17 17 17 17 17 17 17 18 20 22 22 20 18 17 16 16 15 15 16 18 18 17 17 20 21 21 21 21 21 22
25 25 26 27 27 27 29 29 28 28 28 26 26 27 26 24 24 23 21 19 19 19 19 19 18 18 18 18 19 20 22 22 21 19 18 18 17 17 16 16 16 18 18 18 18 20 22 21 21 21 22 22
27 26 26 27 27 28 29 29 29 29 30 28 27 29 28 26 26 24 23 21 20 20 21 20 19 19 19 20 20 21 23 22 20 19 18 18 18 18 18 17 17 17 18 19 20 21 21 21 21 21 21 22
28 26 25 26 27 28 29 29 29 30 31 31 30 29 29 29 28 26 25 23 22 21 22 22 20 19 20 22 22 22 23 21 19 18 17 18 19 19 19 18 18 17 17 19 20 21 21 21 21 21 21 20
30 28 26 25 26 26 27 28 29 31 31 32 32 30 30 31 30 28 27 25 23 23 23 22 22 21 21 22 23 23 23 21 19 19 19 19 20 20 20 20 19 19 18 19 20 21 21 21 21 20 20 20
33 31 29 27 26 26 26 28 29 30 31 32 33 33 32 32 32 31 29 27 25 25 25 24 24 24 23 23 22 22 23 23 21 22 22 23 22 22 22 21 21 20 20 19 20 20 20 21 21 20 20 19
35 33 32 30 28 27 27 27 28 29 30 30 32 33 34 33 33 32 30 29 28 28 27 27 28 27 24 23 23 23 25 25 24 24 25 25 25 23 22 22 22 21 21 20 20 20 20 20 21 20 20 20
35 34 33 32 30 29 28 28 28 29 29 30 31 33 34 34 34 33 32 31 30 30 30 30 31 29 26 25 25 25 27 27 26 26 26 26 26 25 23 23 22 22 21 21 21 20 19 20 20 21 20 20
34 33 33 33 31 29 29 29 28 28 29 30 31 33 33 34 35 34 33 33 32 32 33 33 32 31 29 27 27 27 29 29 28 29 29 27 26 26 25 24 23 22 21 21 21 20 19 19 19 20 20 19
34 33 33 33 31 29 29 29 29 28 29 31 32 33 33 34 35 35 35 34 33 34 34 34 34 33 32 30 29 29 31 31 30 30 30 29 26 26 26 26 25 24 22 22 22 21 19 18 17 17 18 19
34 33 32 33 31 28 28 29 29 29 29 31 33 34 34 34 35 36 35 35 35 35 35 35 36 36 35 33 32 32 33 33 32 31 31 30 28 27 26 27 28 27 24 22 21 21 19 17 17 16 15 15
34 34 33 33 32 30 30 30 30 30 29 31 34 36 35 35 35 36 35 35 35 35 36 37 37 37 37 36 35 35 35 35 35 35 34 32 32 30 27 26 28 28 27 24 20 18 18 16 15 14 13 12
37 37 36 35 36 35 33 32 31 31 30 30 34 35 35 35 35 35 35 36 36 35 36 37 37 38 38 38 37 37 38 39 38 37 37 35 33 32 30 29 29 29 29 26 19 16 14 13 12 12 12 12
41 41 41 40 40 39 35 34 33 33 33 32 33 34 33 33 33 32 33 34 35 36 36 36 37 39 39 39 39 40 39 39 39 39 38 37 34 31 31 31 31 32 30 23 19 18 13 8 7 9 9 10
43 43 42 40 38 37 35 33 33 33 33 32 32 33 33 32 32 31 32 33 35 37 37 37 38 40 41 41 41 41 40 38 39 38 38 39 37 33 29 28 31 36 31 21 19 18 10 4 5 4 8 11
41 40 38 36 33 33 32 31 30 30 30 32 33 33 33 34 34 33 33 34 35 38 39 40 40 40 41 41 41 43 42 40 40 39 39 39 38 36 31 28 31 37 34 27 22 14 5 3 4 3 8 13
38 35 33 32 29 27 28 28 27 28 30 32 33 35 36 36 37 36 35 35 36 37 37 38 39 40 40 39 41 43 42 41 41 41 42 41 40 39 37 34 34 37 36 33 30 20 9 6 3 2 9 13
36 34 33 32 30 28 28 28 30 33 35 35 36 37 37 37 36 36 34 34 35 37 38 38 38 38 39 39 41 43 42 41 41 43 44 43 42 41 41 38 35 36 39 36 33 28 17 11 8 7 14 10
35 35 34 34 34 33 32 32 33 36 35 35 36 36 35 35 35 35 34 33 33 37 40 40 39 40 41 42 43 43 43 41 42 44 44 44 44 43 41 40 36 36 39 36 34 32 21 13 12 13 17 11
Wind_Direction
160 166 164 158 159 156 156 154 144 136 131 125 120 120 119 120 122 126 128 127 127 127 125 123 122 121 119 117 114 112 111 115 113 112 121 125 122 117 113 110 108 108 110 110 108 109 108 106 109 110 105 102
165 168 166 163 165 164 164 163 157 149 145 138 130 126 123 121 121 125 130 134 136 137 136 134 132 128 125 119 117 119 116 120 118 119 128 127 122 120 116 115 114 113 113 112 111 111 113 112 114 115 108 104
169 170 171 170 170 171 171 170 166 160 155 148 141 134 130 126 124 127 130 135 138 141 143 143 141 136 131 123 122 128 123 122 121 124 132 129 125 125 122 121 118 115 116 116 114 112 113 113 114 114 109 106
174 173 175 176 176 176 177 178 174 166 159 156 151 144 139 134 130 131 132 135 137 141 147 148 146 142 137 129 129 135 128 122 121 126 133 129 127 128 125 123 118 114 116 120 122 120 120 119 117 116 114 112
180 177 178 181 180 179 182 185 182 173 165 164 160 154 150 145 141 138 137 138 140 143 148 150 151 148 142 135 137 140 133 124 123 130 131 127 128 128 125 122 118 115 118 122 126 127 127 125 121 119 118 116
185 183 182 184 184 184 188 190 187 181 175 174 169 163 160 156 152 146 144 145 145 147 149 152 156 153 146 144 143 141 136 128 127 134 134 132 133 128 124 124 121 120 120 123 129 131 131 128 124 121 119 118
190 189 187 188 189 188 191 193 191 187 183 182 177 171 168 166 161 155 153 154 153 152 153 157 161 160 153 150 147 142 138 132 132 140 141 139 140 134 128 127 125 127 126 126 131 133 133 131 127 125 122 120
194 193 192 191 192 193 195 195 195 192 188 186 181 176 176 173 167 164 163 162 163 161 160 161 164 166 160 156 154 149 143 138 141 146 146 146 150 147 136 128 128 132 132 133 134 132 134 135 133 130 127 124
196 197 196 194 195 196 198 198 197 194 192 189 182 177 181 180 173 173 172 170 172 169 166 165 166 169 167 164 160 158 150 145 148 150 149 150 153 156 148 134 130 135 136 136 137 136 136 138 137 134 130 129
198 200 199 198 198 197 200 201 199 195 193 190 182 178 182 185 181 181 181 179 178 176 174 169 169 170 171 170 166 164 156 149 152 154 152 153 154 159 159 147 138 138 139 139 141 141 140 139 138 137 136 134
200 202 203 202 200 199 200 202 200 197 196 193 184 179 186 193 192 189 188 186 183 182 181 175 173 173 173 173 170 169 161 155 158 159 157 159 161 163 166 161 152 146 144 146 149 147 144 142 140 140 140 138
202 203 203 204 202 201 202 203 203 201 198 195 187 183 191 198 198 197 193 191 188 186 185 181 177 175 176 176 173 171 168 164 163 164 165 166 169 170 172 170 164 157 151 152 156 154 149 145 143 142 140 139
202 202 201 203 203 203 203 204 206 205 201 197 190 188 193 197 200 200 198 195 191 189 187 184 181 179 179 179 176 175 173 171 169 171 173 174 176 177 177 174 171 167 159 156 159 158 152 147 145 143 141 140
200 200 200 203 204 204 205 205 207 207 204 201 195 193 196 199 201 202 202 200 194 191 189 186 184 184 182 182 181 179 176 176 177 179 180 182 182 181 179 175 174 172 166 162 162 161 156 151 147 146 144 143
199 201 202 204 205 205 207 206 208 208 207 205 201 198 200 202 204 204 205 203 197 192 191 190 187 187 187 185 185 182 178 179 184 188 188 189 187 184 180 175 174 175 170 165 164 164 161 155 151 149 148 147
198 201 204 205 206 206 208 208 209 210 209 209 207 205 204 204 205 205 206 205 201 193 193 196 191 190 192 189 187 184 182 183 190 195 195 193 189 185 181 174 173 175 174 168 166 168 165 162 158 155 154 153
201 202 205 207 209 208 208 209 211 212 211 211 211 209 207 207 206 205 206 206 203 197 196 200 196 194 197 194 190 188 187 189 195 198 194 190 187 184 181 176 172 174 174 171 170 171 170 168 166 162 160 158
209 208 209 211 212 211 210 210 211 213 214 214 213 212 211 211 209 207 206 205 204 200 198 201 199 198 200 198 195 192 192 193 197 199 193 187 186 184 183 180 176 176 174 172 173 173 174 174 172 170 167 165
214 212 210 212 213 212 211 211 212 214 215 216 216 215 215 214 211 209 207 206 204 202 200 201 200 201 202 199 197 197 196 197 198 198 193 189 187 184 184 182 179 180 177 174 176 175 177 178 177 177 176 174
212 210 208 211 213 213 213 213 215 215 216 217 217 217 217 216 214 213 210 207 206 203 202 202 202 202 203 199 198 199 198 199 200 197 193 192 192 186 182 181 177 178 179 175 175 176 178 180 181 182 183 183
209 208 208 210 212 214 215 217 218 217 218 219 218 217 217 217 216 215 213 210 209 207 204 204 204 203 201 200 200 201 200 201 201 198 194 192 194 192 184 180 176 174 176 175 174 176 178 179 182 186 188 190
207 206 208 210 211 215 217 218 220 220 220 221 219 217 216 216 216 215 215 214 213 210 208 206 206 204 201 201 201 201 201 201 201 201 198 192 191 194 191 186 181 178 176 174 173 173 176 179 180 185 188 191
205 206 208 210 212 217 219 220 222 224 224 222 221 219 218 217 216 215 215 216 215 213 211 208 206 205 202 201 202 202 201 200 200 199 199 196 191 192 194 192 186 181 176 172 170 168 170 177 182 183 187 191
206 207 209 210 211 215 219 221 222 225 227 223 221 221 221 219 217 216 217 218 216 213 213 210 208 206 203 202 203 201 200 201 202 201 200 199 195 191 187 187 186 183 177 167 158 157 161 169 180 185 188 194
207 207 207 208 210 213 217 220 221 223 225 222 220 220 219 218 215 214 216 217 216 215 214 212 209 207 205 204 204 205 206 206 206 205 202 199 196 192 186 183 186 184 176 162 148 144 149 158 172 183 192 197
208 209 209 209 211 213 215 218 219 219 220 219 218 218 218 217 216 216 218 219 219 219 218 215 211 209 208 207 208 209 208 207 205 203 201 196 191 190 190 187 185 182 176 168 159 151 141 140 165 184 198 202
211 212 212 213 214 215 214 216 219 219 219 218 219 220 221 221 220 219 220 221 222 223 223 221 216 212 210 210 211 210 206 204 203 201 199 197 192 188 189 189 187 186 185 179 163 150 143 157 159 188 212 209
214 213 213 215 216 216 214 215 217 218 219 219 219 221 222 223 222 219 218 219 219 219 220 220 218 214 211 211 213 210 206 205 204 202 200 199 197 190 185 185 190 193 193 189 175 152 112 143 154 229 207 192
213 212 211 211 212 213 214 214 215 215 217 218 218 220 222 223 225 224 223 223 222 222 221 218 217 216 214 215 215 210 207 208 207 207 206 203 201 197 194 191 192 196 198 201 195 179 149 145 178 244 172 168
213 213 211 208 206 207 208 210 212 213 214 214 216 219 222 223 226 228 227 227 228 230 230 227 223 221 221 221 218 212 210 212 211 209 207 205 203 204 204 199 195 197 201 207 207 198 191 198 215 183 152 148
215 214 213 211 209 208 208 209 213 215 217 218 218 221 222 224 226 227 227 228 230 231 230 231 228 226 225 223 220 214 212 214 214 211 209 209 210 209 208 203 199 201 201 205 212 212 214 227 230 198 173 167